Flag for Germany Weather past 2 weeks in Langen, Hesse, Germany

52 °F

Light rain. Passing clouds.

Feels Like: 46 °F
Forecast: 50 / 54 °F
Wind: 17 mph from Southwest

Location: Frankfurt-M-Flughafen Airport

Current Time: Nov 30, 2015 at 6:13:17 PM

Latest Report: Nov 30, 2015 at 5:20 PM

Visibility: N/A

Pressure: 30.04 "Hg

Humidity: 77%

Dew point: 45 °F

Location of LangenLocation

Historic Weather in Langen — Graph


Langen temperature yesterday

Maximum temperature yesterday: 54 °F (at 11:20 PM)
Minimum temperature yesterday: 39 °F (at 12:50 AM)
Average temperature yesterday: 47 °F

Past Weeks' High & Low Weather Summary

High61 °F (Nov 18, 12:50 AM)100% (Nov 17, 7:20 AM)30.30 "Hg (Nov 17, 7:20 AM)
Low27 °F (Nov 24, 2:20 AM)51% (Nov 18, 12:50 PM)29.39 "Hg (Nov 21, 2:20 PM)
Average44 °F85%29.93 "Hg
* Reported Nov 15 4:20 PM — Nov 30 4:50 PM, Langen, Weather by CustomWeather, © 2015

Note: Actual official high and low records may vary slightly from our data, if they occured in-between our weather recording intervals... More about our weather records


Langen weather history for previous 24 hours

Time TempWeatherWind HumidityBarometerVisibility
4:50 PM
Mon, Nov 30
52 °FLight rain. Passing clouds.20 mph77%30.04 "HgN/A
4:20 PM52 °FLight rain. Partly sunny.20 mph77%30.04 "HgN/A
3:50 PM50 °FLight rain. Partly sunny.17 mph88%30.07 "HgN/A
3:20 PM50 °FLight rain. Partly sunny.18 mph88%30.07 "HgN/A
2:50 PM50 °FRain. Low clouds.18 mph88%30.07 "HgN/A
2:20 PM50 °FLight rain. More clouds than sun.20 mph94%30.09 "HgN/A
1:50 PM50 °FDrizzle. Broken clouds.21 mph94%30.09 "Hg3 mi
1:20 PM50 °FLight rain. Partly sunny.17 mph94%30.09 "HgN/A
12:50 PM50 °FLight rain. Mostly cloudy.14 mph94%30.09 "HgN/A
12:20 PM48 °FRain. Broken clouds.8 mph94%30.12 "Hg4 mi
11:50 AM48 °FLight rain. Broken clouds.10 mph94%30.12 "Hg4 mi
11:20 AM48 °FLight rain. More clouds than sun.13 mph94%30.15 "Hg5 mi
10:50 AM48 °FLight rain. Broken clouds.8 mph94%30.15 "HgN/A
10:20 AM46 °FLight rain. Broken clouds.5 mph93%30.15 "HgN/A
9:50 AM46 °FLight rain. Mostly cloudy.8 mph93%30.15 "HgN/A
9:20 AM46 °FLight rain. Broken clouds.6 mph93%30.15 "HgN/A
7:50 AM46 °FLight rain. Mostly cloudy.10 mph93%30.12 "HgN/A
7:20 AM46 °FLight rain. Mostly cloudy.13 mph87%30.09 "HgN/A
6:50 AM46 °FLight rain. Mostly cloudy.15 mph87%30.09 "HgN/A
6:20 AM46 °FLight rain. Mostly cloudy.16 mph87%30.09 "HgN/A
5:20 AM46 °FRain. Mostly cloudy.22 mph87%30.07 "Hg3 mi
4:50 AM50 °FLight rain. Overcast.17 mph88%30.04 "HgN/A
4:20 AM52 °FPassing clouds.24 mph77%30.01 "HgN/A
3:50 AM52 °FPartly cloudy.24 mph77%30.01 "HgN/A
3:20 AM54 °FPassing clouds.26 mph67%30.01 "HgN/A
2:50 AM54 °FPassing clouds.29 mph67%29.98 "HgN/A
2:20 AM52 °FLight rain. Partly cloudy.28 mph72%29.98 "HgN/A
1:20 AM54 °FPartly cloudy.29 mph67%29.98 "HgN/A
12:50 AM54 °FPassing clouds.28 mph67%29.95 "HgN/A
11:50 PM
Sun, Nov 29
54 °FPassing clouds.31 mph67%29.95 "HgN/A
11:20 PM54 °FPassing clouds.31 mph67%29.95 "HgN/A
10:50 PM52 °FPassing clouds.30 mph72%29.95 "HgN/A
10:20 PM52 °FPassing clouds.28 mph77%29.95 "HgN/A
9:50 PM52 °FPassing clouds.26 mph77%29.95 "HgN/A
9:20 PM52 °FPassing clouds.26 mph77%29.95 "HgN/A
8:50 PM52 °FLight rain. Partly cloudy.23 mph77%29.95 "HgN/A
8:20 PM52 °FPartly cloudy.22 mph77%29.95 "HgN/A
7:50 PM52 °FPartly cloudy.25 mph77%29.95 "HgN/A
7:20 PM52 °FPartly cloudy.23 mph77%29.95 "HgN/A
6:50 PM52 °FPartly cloudy.21 mph77%29.95 "HgN/A
6:20 PM52 °FPassing clouds.15 mph77%29.95 "HgN/A
Weather by CustomWeather, © 2015

See weather overviewHow to use our weather pages